Total_Precipitation_Accumulation
1.95 2.33 2.69 3.14 3.59 4.09 4.82 5.46 5.91 5.93 5.78 5.47 5.12 4.86 4.35 4.01 3.73 3.45 3.25 3.01 2.73 2.66 3.03 2.81 3.11 2.93 2.85 2.70 2.66 2.78 2.83 2.58 2.78 3.03 2.56 2.04 1.73 1.63 1.54 1.56 1.63 1.58 1.67
1.90 2.26 2.77 3.06 3.42 3.93 4.48 4.90 4.92 4.61 4.52 4.58 4.49 4.24 4.22 4.02 3.89 3.64 3.43 3.01 2.84 2.75 2.60 2.79 2.62 2.59 2.68 2.49 2.40 2.62 2.64 2.36 2.67 2.85 2.86 2.25 1.99 1.71 1.26 1.41 1.54 1.65 1.89
1.52 1.87 2.44 2.75 2.94 3.41 3.74 3.77 3.68 3.52 3.60 3.72 3.71 3.76 3.96 3.96 3.91 3.76 3.48 3.16 3.00 2.91 2.79 2.68 2.50 2.44 2.30 2.40 2.44 2.50 2.54 2.49 2.45 2.51 2.78 2.42 2.01 1.69 1.33 1.32 1.55 1.85 2.07
1.28 1.58 1.92 2.15 2.42 2.68 2.77 2.75 2.84 2.89 2.95 3.05 3.12 2.99 2.99 3.18 3.38 3.58 3.63 3.54 3.28 3.04 2.78 2.62 2.41 2.25 2.12 2.37 2.09 2.19 2.48 2.63 2.35 2.34 2.32 2.24 2.32 2.19 1.80 1.44 1.37 1.64 1.84
1.31 1.52 1.64 1.80 1.89 1.93 2.02 2.07 2.36 2.70 2.85 2.97 3.09 2.98 2.68 2.66 2.70 2.83 3.00 3.00 2.96 2.79 2.48 2.40 2.34 2.17 2.04 2.07 2.06 2.34 2.36 2.38 2.32 2.39 2.35 2.42 2.55 2.36 2.19 1.82 1.71 1.86 1.83
1.01 1.24 1.53 1.62 1.58 1.54 1.66 1.86 2.16 2.60 2.85 2.94 2.89 2.85 2.76 2.72 2.64 2.63 2.69 2.57 2.53 2.44 2.24 2.16 2.25 2.10 2.01 2.03 2.02 2.14 2.23 2.38 2.48 2.48 2.45 2.49 2.48 2.48 2.67 2.31 2.08 2.05 1.79
0.78 0.79 0.99 1.25 1.22 1.17 1.34 1.59 1.78 2.13 2.38 2.50 2.48 2.42 2.51 2.59 2.48 2.35 2.28 2.21 2.10 2.01 1.96 2.04 2.16 2.02 1.97 2.04 2.19 2.18 2.16 2.31 2.41 2.37 2.45 2.52 2.46 2.56 2.75 2.66 2.31 2.10 1.87
0.58 0.57 0.65 0.82 1.04 1.04 1.09 1.20 1.45 1.72 1.93 1.99 2.11 2.23 2.37 2.45 2.39 2.54 2.35 2.19 1.91 1.76 1.81 2.02 2.10 2.03 1.95 1.94 2.30 2.28 2.29 2.38 2.36 2.26 2.56 2.61 2.41 2.60 2.80 2.90 2.91 2.59 2.40
0.50 0.50 0.57 0.77 0.80 0.80 0.84 0.95 1.20 1.41 1.56 1.70 1.87 1.95 1.93 1.96 2.12 2.28 2.27 2.10 2.02 1.82 1.90 1.96 2.15 2.24 2.31 2.35 2.48 2.41 2.40 2.58 2.54 2.49 2.66 2.66 2.53 2.55 2.68 2.91 3.11 3.12 2.92
0.52 0.49 0.50 0.59 0.63 0.63 0.74 0.98 1.19 1.22 1.42 1.72 1.93 1.84 1.85 1.83 1.99 2.01 2.00 2.02 1.97 1.95 1.98 1.98 2.06 2.19 2.32 2.38 2.52 2.52 2.56 2.73 2.73 2.78 2.86 2.75 2.51 2.62 2.68 2.81 3.08 3.34 3.38
0.55 0.54 0.54 0.55 0.66 0.58 0.66 0.84 0.98 1.13 1.42 1.73 1.96 1.99 1.89 1.91 1.97 1.85 1.80 1.92 1.94 1.92 1.96 1.96 1.94 1.95 2.09 2.29 2.49 2.45 2.62 2.74 2.78 2.76 2.67 2.58 2.62 2.77 2.71 2.85 3.01 3.22 3.45
0.47 0.44 0.43 0.50 0.48 0.47 0.57 0.88 1.20 1.55 1.73 2.00 2.31 2.37 2.14 1.94 1.80 1.64 1.63 1.78 1.95 1.98 1.95 1.92 1.91 1.87 1.96 2.21 2.38 2.49 2.74 2.87 2.78 2.70 2.64 2.54 2.66 2.77 2.75 2.83 2.82 2.90 3.18
0.49 0.47 0.42 0.51 0.50 0.48 0.50 0.64 0.81 1.17 1.50 1.85 2.20 2.20 1.94 1.71 1.65 1.64 1.66 1.77 1.91 1.91 1.87 1.89 1.96 2.06 2.17 2.35 2.47 2.58 2.75 2.72 2.62 2.64 2.56 2.47 2.56 2.52 2.59 2.61 2.60 2.61 2.71
0.61 0.55 0.52 0.50 0.52 0.52 0.50 0.61 0.72 0.80 1.01 1.46 1.77 1.78 1.61 1.52 1.52 1.55 1.58 1.57 1.62 1.66 1.72 1.92 2.15 2.29 2.41 2.50 2.53 2.54 2.51 2.52 2.43 2.34 2.27 2.30 2.43 2.53 2.49 2.39 2.38 2.45 2.59
0.61 0.57 0.57 0.62 0.64 0.70 0.71 0.72 0.75 0.78 0.96 1.41 1.64 1.60 1.52 1.50 1.42 1.41 1.49 1.55 1.61 1.65 1.86 2.03 2.13 2.16 2.21 2.27 2.38 2.39 2.33 2.31 2.23 2.14 1.96 1.99 2.31 2.47 2.41 2.21 2.30 2.36 2.44
0.60 0.57 0.50 0.60 0.70 0.76 0.79 0.81 0.88 0.93 1.05 1.35 1.58 1.55 1.47 1.42 1.33 1.36 1.43 1.57 1.69 1.85 2.03 2.03 2.00 1.94 1.68 1.77 1.90 1.95 2.00 2.04 2.02 1.90 1.83 1.83 1.92 1.95 1.98 1.96 1.96 2.01 2.08
0.58 0.56 0.60 0.69 0.88 0.83 0.85 0.92 0.88 0.94 1.12 1.40 1.58 1.60 1.52 1.48 1.43 1.38 1.52 1.71 1.89 2.06 2.17 2.14 2.06 1.91 1.81 1.70 1.61 1.62 1.69 1.83 1.84 1.86 1.90 1.67 1.49 1.61 1.64 1.76 1.74 1.67 1.73
0.67 0.74 0.71 0.77 0.86 0.84 0.88 0.94 0.98 1.02 1.17 1.39 1.59 1.66 1.60 1.63 1.71 1.72 1.78 1.97 2.17 2.31 2.33 2.29 2.18 2.06 1.97 1.89 1.72 1.71 1.65 1.74 1.76 1.76 1.77 1.71 1.59 1.57 1.67 1.73 1.68 1.53 1.48
0.79 0.83 0.90 0.94 1.01 1.01 0.96 1.00 1.15 1.19 1.27 1.34 1.55 1.67 1.71 1.79 1.82 1.89 2.12 2.30 2.44 2.46 2.42 2.44 2.33 2.23 2.23 2.11 1.77 1.62 1.55 1.70 1.73 1.72 1.66 1.61 1.55 1.58 1.46 1.43 1.46 1.45 1.42
0.93 0.94 1.00 1.04 1.06 1.09 1.14 1.18 1.30 1.43 1.56 1.64 1.73 1.93 2.13 2.32 2.40 2.46 2.50 2.56 2.65 2.58 2.55 2.48 2.47 2.37 2.33 2.26 1.74 1.46 1.40 1.59 1.64 1.70 1.66 1.54 1.40 1.37 1.25 1.24 1.39 1.38 1.36
0.88 0.96 1.00 1.09 1.16 1.16 1.29 1.48 1.58 1.69 1.85 1.99 2.06 2.26 2.59 2.80 2.80 2.84 2.73 2.62 2.63 2.65 2.64 2.53 2.44 2.36 2.28 2.18 1.73 1.52 1.49 1.65 1.74 1.71 1.66 1.60 1.46 1.26 1.19 1.15 1.22 1.28 1.25
0.80 0.92 1.01 1.08 1.25 1.47 1.66 1.91 2.01 2.01 2.13 2.28 2.43 2.67 2.94 2.84 2.76 2.92 2.80 2.76 2.81 2.78 2.66 2.55 2.47 2.48 2.38 2.15 1.83 1.61 1.63 1.73 1.82 1.86 1.83 1.74 1.53 1.28 1.18 1.10 1.09 1.07 1.00
0.78 0.87 0.97 1.14 1.33 1.60 1.98 2.22 2.27 2.39 2.42 2.50 2.63 2.74 2.83 2.96 3.08 3.14 3.02 2.91 2.87 2.79 2.59 2.47 2.31 2.22 2.30 2.30 1.91 1.62 1.65 1.70 1.71 1.87 1.92 1.66 1.41 1.25 1.09 1.07 1.07 0.96 0.88
0.84 0.89 0.99 1.18 1.46 1.72 2.05 2.20 2.25 2.30 2.32 2.35 2.35 2.44 2.59 2.72 2.83 3.08 3.12 3.00 2.83 2.72 2.62 2.52 2.36 2.24 2.25 2.23 1.90 1.59 1.55 1.62 1.59 1.66 1.74 1.59 1.42 1.26 1.13 1.07 1.02 0.96 0.98
0.90 0.99 1.09 1.20 1.35 1.59 1.81 1.90 2.04 2.11 2.27 2.31 2.23 2.19 2.23 2.38 2.51 2.62 2.71 2.65 2.61 2.43 2.30 2.17 2.08 2.03 2.05 2.04 1.80 1.60 1.56 1.65 1.70 1.67 1.68 1.65 1.51 1.38 1.27 1.23 1.26 1.28 1.24
0.87 0.98 1.11 1.26 1.40 1.56 1.74 1.82 1.96 2.03 2.10 2.11 2.03 2.03 2.03 2.12 2.18 2.19 2.12 1.96 1.87 1.71 1.55 1.47 1.42 1.42 1.48 1.61 1.46 1.34 1.41 1.56 1.64 1.54 1.51 1.61 1.60 1.53 1.44 1.38 1.38 1.37 1.32